Probability
0 0 0 0 0 0 0 0 0 0 0 0 0 0 0 0 0 0 0 0 0 0 0 0 0 0 0 0 1 2 2 1 0 0 0 0 0 0 0 0 0 0 0 0 0 0 0 0 0
0 0 0 0 0 0 0 0 0 0 0 0 0 0 0 0 0 0 0 0 0 0 0 0 0 0 0 0 1 2 2 1 0 0 0 0 0 0 0 0 0 0 0 0 0 0 0 0 0
0 0 0 0 0 0 0 0 0 0 0 0 0 0 0 0 0 0 0 0 0 0 0 0 0 0 0 0 0 1 1 0 0 0 0 0 0 0 0 0 0 0 0 0 0 0 0 0 0
0 0 0 0 0 0 0 0 0 0 0 0 0 0 0 0 0 0 0 0 0 0 0 1 1 1 0 0 0 1 1 0 0 0 0 0 0 0 0 0 0 0 0 0 0 0 0 0 0
0 0 0 0 0 0 0 0 0 0 0 0 0 0 0 0 0 0 0 0 0 0 0 1 3 2 1 0 0 1 2 1 0 0 0 0 0 0 0 0 0 0 0 0 0 0 0 0 0
0 0 0 0 0 0 0 0 0 0 0 0 0 0 0 0 0 0 0 0 0 0 0 1 3 3 1 0 0 1 2 2 1 0 0 0 0 0 0 0 0 0 0 0 0 0 0 0 0
0 0 0 0 0 0 0 0 0 0 0 0 0 0 0 0 1 1 1 0 0 0 0 1 3 2 0 0 0 0 1 1 1 0 0 0 0 0 0 0 0 0 0 0 0 0 0 0 0
0 0 0 0 0 0 0 0 0 0 0 0 0 0 0 2 6 9 6 2 0 0 0 0 1 0 0 0 0 0 0 0 0 0 0 0 0 0 0 0 0 0 0 0 0 0 0 0 0
0 0 0 0 0 0 0 0 0 0 0 0 0 0 0 5 15 19 12 4 1 0 0 0 0 0 0 0 0 0 0 0 0 0 0 0 0 0 0 0 0 0 0 0 0 0 0 0 0
0 0 0 0 0 0 0 0 0 0 0 0 0 0 2 11 23 24 12 3 1 0 0 0 0 0 0 0 0 0 0 0 0 0 0 0 0 0 0 0 0 0 0 0 0 0 0 0 0
0 0 0 0 0 0 0 0 0 0 0 0 0 0 3 15 26 21 9 2 0 0 0 0 0 0 0 0 0 0 0 0 0 0 0 0 0 0 0 0 0 0 0 0 0 0 0 0 0
0 0 0 0 0 0 0 0 0 0 0 0 0 0 3 12 20 16 8 5 4 2 1 0 0 0 0 0 0 0 0 0 0 0 0 0 0 0 0 0 0 0 0 0 0 0 0 0 0
0 0 0 0 0 0 0 0 0 0 0 0 0 0 1 4 8 8 9 12 10 6 4 3 2 1 1 0 0 0 0 0 0 0 0 0 0 0 0 0 0 0 0 0 0 0 0 0 0
0 0 0 0 0 0 0 0 0 0 0 0 0 0 0 0 1 2 6 11 14 14 14 14 12 9 5 2 0 0 0 0 0 0 0 0 0 0 0 0 0 0 0 0 0 0 0 0 0
0 0 0 0 0 0 0 0 0 0 0 0 0 0 0 0 0 0 2 5 11 20 28 32 32 26 15 7 3 1 0 0 0 0 0 0 0 0 0 0 0 0 0 0 0 0 0 0 0
0 0 0 0 0 0 0 0 0 0 0 0 0 0 0 0 0 0 0 1 5 15 29 40 48 46 32 18 10 6 3 2 1 0 0 0 0 0 0 0 0 0 0 0 0 0 0 0 0
0 0 0 0 0 0 0 0 0 0 0 0 0 0 0 0 0 0 0 0 1 6 16 30 46 54 48 36 24 16 10 6 4 2 1 0 0 0 0 0 0 0 0 0 0 0 0 0 0
0 0 0 0 0 0 0 0 0 0 0 0 0 0 0 0 0 0 0 0 0 1 5 14 30 47 54 53 45 34 25 17 10 7 4 2 0 0 0 0 0 0 0 0 0 0 0 0 0
0 0 0 0 0 0 0 0 0 0 0 0 0 0 0 0 0 0 0 0 0 0 1 5 15 30 46 59 63 57 47 37 27 18 11 5 2 1 0 0 0 0 0 0 0 0 0 0 0
0 0 0 0 0 0 0 0 0 0 0 0 0 0 0 0 0 0 0 0 0 0 0 1 5 13 30 51 64 64 57 49 42 33 22 13 8 4 1 0 0 0 0 0 0 0 0 0 0
0 0 0 0 0 0 0 0 0 0 0 0 0 0 0 0 0 0 0 0 0 0 0 0 1 4 14 33 50 56 53 49 48 46 37 24 15 9 3 1 0 0 0 0 0 0 0 0 0
0 0 0 0 0 0 0 0 0 0 0 0 0 0 0 0 0 0 0 0 0 0 0 0 0 1 5 16 33 46 52 50 47 47 42 29 19 11 5 2 0 0 0 0 0 0 0 0 0
0 0 0 0 0 0 0 0 0 0 0 0 0 0 0 0 0 0 0 0 0 0 0 0 0 0 1 6 18 33 43 44 38 34 31 24 16 11 6 3 1 0 0 0 0 0 0 0 0
0 0 0 0 0 0 0 0 0 0 0 0 0 0 0 0 0 0 0 0 0 0 0 0 0 0 0 2 8 19 29 29 22 18 18 16 12 8 5 3 1 0 0 0 0 0 0 0 0
0 0 0 0 0 0 0 0 0 0 0 0 0 0 0 0 0 0 0 0 0 0 0 0 0 0 0 0 3 10 18 19 14 11 11 11 9 7 5 3 2 0 0 0 0 0 0 0 0
0 0 0 0 0 0 0 0 0 0 0 0 0 0 0 0 0 0 0 0 0 0 0 0 0 0 0 0 1 4 9 11 9 7 7 7 7 6 4 3 1 0 0 0 0 0 0 0 0
0 0 0 0 0 0 0 0 0 0 0 0 0 0 0 0 0 0 0 0 0 0 0 0 0 0 0 0 0 1 3 5 5 3 3 3 4 4 3 2 1 0 0 0 0 0 0 0 0
0 0 0 0 0 0 0 0 0 0 0 0 0 0 0 0 0 0 0 0 0 0 0 0 0 0 0 0 0 0 1 2 1 1 0 1 1 1 1 1 0 0 0 0 0 0 0 0 0
0 0 0 0 0 0 0 0 0 0 0 0 0 0 0 0 0 0 0 0 0 0 0 0 0 0 0 0 0 0 0 0 0 0 0 0 0 0 0 0 0 0 0 0 0 0 0 0 0
0 0 0 0 0 0 0 0 0 0 0 0 0 0 0 0 0 0 0 0 0 0 0 0 0 0 0 0 0 0 0 0 0 0 0 0 0 0 0 0 0 0 0 0 0 0 0 0 0
Wind_Speed
4 3 3 4 6 4 4 6 4 4 4 3 2 3 5 6 6 4 1 7 10 11 10 13 15 15 15 16 16 16 15 14 14 13 12 11 10 9 8 7 6 5 6 9 11 12 12 12 12
1 2 5 5 5 2 7 6 6 6 4 5 3 1 1 3 1 4 4 6 11 11 9 11 15 16 16 16 16 16 15 14 13 12 11 10 10 9 8 7 7 7 8 9 11 12 12 12 11
2 4 4 5 5 7 7 6 7 4 6 3 3 2 2 2 2 5 5 8 10 9 8 11 15 16 16 16 16 16 15 14 13 12 11 10 10 9 8 8 8 9 10 11 12 13 12 11 10
3 5 5 4 8 9 7 3 2 5 6 3 2 4 3 2 3 4 8 11 11 8 7 10 15 16 16 15 15 15 15 15 14 13 12 11 10 9 9 9 9 10 11 12 12 12 11 10 9
4 5 3 3 8 6 5 4 2 3 5 3 3 4 3 4 3 8 11 12 11 8 7 10 14 15 15 15 15 15 15 15 14 13 12 11 10 10 10 9 10 10 11 11 11 10 9 8 8
4 5 4 7 9 5 4 4 2 3 4 4 2 3 3 2 4 10 12 12 9 9 7 9 13 13 14 14 14 14 14 14 14 14 12 11 11 11 10 10 9 9 9 9 9 8 8 7 7
5 5 6 6 6 6 5 5 4 4 6 5 4 3 4 2 5 10 11 11 9 8 7 7 8 9 11 12 12 13 13 13 13 13 12 11 10 11 10 9 9 9 8 8 7 7 7 6 6
5 5 5 5 5 6 3 4 4 6 7 3 6 6 6 4 9 11 10 9 9 7 6 6 7 7 6 7 11 11 11 11 12 12 10 10 10 10 10 8 7 7 7 6 6 6 6 6 6
4 4 6 7 7 4 2 3 2 1 3 1 3 3 3 9 13 13 10 9 10 10 7 6 6 6 6 6 8 9 10 10 10 9 11 9 5 5 6 5 5 6 6 6 6 6 6 7 7
4 5 8 5 5 3 1 2 2 2 1 1 1 2 2 13 15 15 14 14 14 14 12 8 7 7 6 6 5 4 4 6 5 5 6 5 4 4 5 5 6 6 5 4 5 6 7 6 4
6 6 4 4 3 1 0 1 1 0 2 2 1 2 4 10 13 14 14 13 13 13 12 11 9 7 7 5 4 3 3 3 4 6 6 5 4 3 3 2 2 2 3 2 3 4 3 3 3
5 4 4 3 2 1 1 1 2 3 4 1 1 0 3 7 11 12 13 12 11 12 13 12 11 8 7 5 5 4 4 4 4 5 6 5 3 3 3 3 3 2 2 3 3 3 3 4 4
4 3 3 2 2 2 2 3 3 6 6 3 2 1 2 4 5 5 5 7 9 11 12 12 12 11 8 6 5 6 5 5 5 5 6 6 5 5 4 3 3 3 3 3 3 3 4 4 4
6 5 3 2 3 2 4 5 4 8 4 3 3 3 3 4 5 4 5 7 10 12 12 11 12 12 10 9 7 6 6 6 6 6 7 8 6 6 5 4 4 4 3 3 4 4 4 3 3
3 3 3 4 4 3 2 8 8 8 4 5 6 6 6 6 6 7 7 8 10 10 11 12 13 13 13 11 10 7 7 7 7 7 8 9 8 7 6 5 5 4 4 5 4 4 3 3 3
4 3 3 3 5 5 5 11 4 6 5 8 7 7 7 7 7 8 8 8 8 8 10 12 12 13 15 13 11 8 8 8 8 7 8 10 10 9 7 6 6 5 5 5 5 4 4 3 3
3 4 5 3 2 3 7 8 5 3 4 7 8 7 7 8 8 8 8 8 8 9 9 11 12 13 15 15 11 10 8 9 8 8 8 10 11 11 8 7 6 7 5 5 5 3 3 3 3
6 4 4 5 1 1 5 7 9 6 5 7 8 8 7 8 10 8 7 7 8 8 8 9 11 12 12 11 9 7 8 8 8 8 9 11 11 12 10 7 8 8 6 5 5 4 3 3 4
6 6 3 3 1 2 5 8 12 9 6 8 9 9 8 9 8 6 6 6 5 6 7 8 9 11 9 8 10 11 12 11 10 11 12 12 11 12 11 8 9 9 8 9 8 5 4 3 3
4 4 2 1 3 2 4 9 11 8 7 8 8 8 8 8 7 5 5 5 5 5 6 7 8 9 9 9 9 8 9 8 10 8 9 11 12 13 12 12 10 10 8 9 9 6 5 3 3
4 4 4 1 2 3 5 8 6 4 3 4 4 5 6 7 7 6 4 4 4 5 5 6 7 8 9 9 6 4 4 3 5 7 9 12 13 13 13 13 12 12 11 11 12 10 9 6 3
5 3 4 3 2 3 4 6 8 4 6 3 5 5 5 5 4 4 4 4 4 5 4 5 6 6 7 7 7 9 10 10 11 10 10 11 13 14 14 13 13 13 11 11 12 10 6 7 5
5 5 5 3 3 1 1 2 10 4 3 4 5 5 6 5 4 4 4 4 4 4 3 3 4 5 5 6 8 10 11 10 7 7 8 10 10 11 12 12 12 12 10 10 10 9 8 5 6
9 7 6 5 3 2 3 4 8 3 2 5 5 6 6 6 6 6 6 6 6 5 5 4 4 5 4 5 7 10 12 11 8 8 10 9 7 8 10 10 10 10 9 10 10 9 9 6 6
5 6 3 2 1 5 1 3 10 5 4 4 4 4 5 6 7 8 10 10 9 9 8 6 6 6 5 5 6 8 11 11 12 11 11 9 8 8 11 11 10 9 8 8 8 8 8 7 8
4 6 6 5 4 3 1 7 9 5 5 3 1 2 4 6 6 7 7 7 8 9 9 8 8 8 7 6 6 7 8 7 7 9 8 9 8 8 9 10 9 9 9 9 8 7 7 6 7
6 3 3 6 2 2 5 6 9 2 1 2 3 5 6 7 7 7 7 7 8 9 9 9 9 9 8 7 6 6 6 6 7 7 6 5 4 5 8 9 9 9 10 10 9 7 8 8 7
5 7 5 5 4 3 4 4 4 2 1 3 5 6 7 8 8 8 8 8 8 8 8 8 8 8 8 7 5 4 4 5 5 4 5 5 6 7 9 10 10 11 11 11 10 9 9 9 8
4 4 4 4 3 4 2 5 4 4 1 2 5 6 7 7 8 8 8 8 8 8 8 8 8 8 7 6 5 3 2 1 2 4 5 6 7 9 10 11 11 12 12 11 11 10 11 11 9
4 6 6 5 3 3 2 8 3 3 1 3 6 7 6 6 6 7 7 8 8 9 9 8 8 7 7 5 3 2 1 2 3 5 6 8 9 10 11 12 12 12 12 11 12 12 11 10 9
Wind_Direction
8 14 65 58 56 56 240 244 236 266 255 254 245 214 187 176 177 208 124 140 136 144 157 157 155 154 153 150 146 142 141 138 136 133 131 130 128 128 127 131 136 141 141 139 138 126 113 106 103
32 47 59 66 107 200 253 238 229 232 259 310 305 274 250 228 181 129 142 161 145 146 152 153 153 153 152 149 147 147 146 144 141 139 137 137 135 133 129 125 125 122 123 123 122 119 110 106 105
81 52 93 99 156 194 228 229 225 272 287 277 301 297 253 270 172 171 173 156 142 144 148 153 153 154 153 152 152 153 152 150 148 146 144 143 141 139 131 119 115 114 114 115 113 112 110 109 108
92 61 64 126 215 217 210 226 205 318 333 338 332 308 285 332 194 171 146 148 140 139 144 154 154 155 155 155 157 158 157 156 153 151 149 147 145 143 135 120 113 113 116 118 116 115 113 111 111
67 93 117 212 233 236 228 246 260 306 310 328 347 289 279 348 87 128 140 149 145 139 143 154 154 157 159 161 162 163 163 160 158 155 153 151 147 141 137 130 124 122 122 121 121 119 116 115 115
75 91 146 218 238 243 236 217 239 268 272 291 259 249 276 31 118 140 146 149 146 143 145 155 155 157 162 166 167 169 169 166 163 161 158 154 148 143 143 141 138 135 131 128 126 124 121 119 114
127 134 184 208 236 249 237 191 203 236 260 249 208 219 277 149 146 144 146 144 142 142 145 151 153 157 164 168 171 173 174 171 169 167 161 154 149 149 150 150 149 146 140 133 131 129 124 116 105
145 137 183 208 215 245 226 190 207 200 241 229 175 189 238 188 150 141 140 143 148 150 153 154 151 153 160 168 174 175 175 172 173 170 160 153 152 155 158 158 158 152 146 140 136 132 119 102 93
110 127 200 203 195 230 220 209 239 223 237 257 203 228 265 140 148 146 147 157 166 171 170 164 160 160 160 164 175 173 174 174 174 170 159 151 149 153 159 165 166 157 153 151 145 131 108 89 79
144 190 212 202 190 189 203 208 272 350 301 306 326 346 86 147 161 164 168 174 180 185 185 178 173 169 164 173 167 165 166 168 165 157 154 147 149 157 158 173 175 166 158 155 145 117 100 89 75
178 202 204 226 213 192 222 298 323 324 257 221 246 320 138 164 172 179 182 184 187 188 190 190 185 178 174 173 164 164 160 159 159 160 157 151 151 153 152 149 164 155 135 102 92 83 84 93 99
186 223 207 215 207 193 212 278 295 218 234 193 242 305 154 181 187 191 193 192 190 193 198 197 192 188 185 179 175 171 170 170 170 170 164 157 159 163 161 162 160 146 129 125 107 103 102 100 101
205 229 212 236 272 249 228 234 250 252 252 280 308 103 154 193 214 220 215 206 202 204 203 203 198 197 192 187 185 185 185 184 180 175 175 171 172 175 173 172 167 160 146 144 136 127 122 114 108
204 213 257 263 248 241 239 255 230 255 250 253 267 261 229 229 228 219 209 207 208 211 210 206 206 202 197 197 196 192 192 190 186 187 184 181 180 179 177 176 176 172 163 155 149 144 134 125 120
161 176 254 243 217 229 222 265 231 243 250 256 259 263 264 244 232 231 223 212 210 212 213 210 210 205 203 203 202 199 196 194 197 196 191 190 187 184 183 182 184 180 160 146 132 126 118 120 118
134 153 225 252 195 202 188 257 250 242 235 254 258 257 261 261 239 236 235 229 221 213 211 213 211 207 208 208 205 203 199 199 202 199 196 197 194 188 185 187 189 172 156 150 146 140 125 129 132
150 181 203 260 207 195 204 254 261 260 234 258 266 262 258 267 266 250 237 231 229 220 215 213 210 208 209 209 207 205 200 204 204 200 202 200 198 193 189 191 184 166 160 160 158 146 141 149 147
178 169 180 216 289 225 241 265 279 278 255 260 269 271 265 260 262 260 248 235 231 227 223 219 214 214 210 207 205 204 206 208 206 206 207 200 198 193 190 188 178 168 164 165 162 147 125 132 142
150 153 182 228 309 303 262 272 275 271 261 260 264 266 266 262 260 254 249 248 240 234 228 224 219 218 207 200 204 207 212 212 210 211 209 203 198 192 191 187 178 176 179 178 165 144 138 132 141
133 142 169 294 359 356 303 279 269 260 246 243 255 266 269 275 284 272 257 249 237 233 230 229 226 223 211 207 206 208 209 213 213 209 206 202 199 194 193 188 184 183 177 172 172 155 144 142 166
174 162 168 188 356 35 337 300 288 303 307 298 288 282 287 281 287 296 291 271 259 247 236 234 230 228 221 214 204 194 189 196 200 204 207 204 200 197 196 192 185 185 181 183 183 175 159 155 171
190 170 148 130 70 332 19 313 296 320 328 341 340 338 323 314 304 304 308 301 281 266 258 248 244 238 231 217 205 201 206 212 212 210 209 202 199 198 197 192 189 186 186 185 185 179 167 148 158
135 105 100 98 112 345 339 232 285 338 350 346 341 345 339 336 338 337 333 322 319 314 306 286 272 261 249 230 216 212 218 221 216 207 205 202 198 197 196 191 189 187 188 184 177 172 170 162 157
121 86 69 55 70 271 220 190 279 285 278 308 323 341 351 1 11 8 1 1 355 349 341 327 308 285 269 246 231 222 222 220 210 205 206 202 194 193 193 188 189 187 183 178 175 172 169 159 147
112 108 77 15 7 248 189 209 252 263 270 273 296 333 355 9 12 8 3 359 352 347 341 333 321 303 291 268 247 233 230 223 216 211 210 202 195 195 194 186 184 180 174 166 159 158 158 151 147
151 141 159 187 213 267 187 237 256 266 286 278 275 334 360 6 5 1 352 345 338 334 332 329 320 305 297 282 265 252 239 228 225 217 210 206 205 199 182 178 171 162 155 152 147 142 139 132 132
128 128 133 120 110 280 259 271 298 267 339 359 1 2 356 353 353 347 340 335 329 325 321 318 313 306 300 289 275 260 246 231 224 214 202 193 182 162 157 155 149 144 142 140 136 131 128 126 119
126 136 113 129 158 253 288 266 245 231 316 352 352 345 338 343 344 340 335 329 325 318 313 314 310 302 299 295 279 266 251 235 217 190 180 165 147 137 140 140 138 136 134 134 129 126 124 120 117
118 110 109 110 149 166 268 279 223 200 204 326 320 319 324 328 330 329 327 323 320 320 321 320 320 316 311 303 291 278 265 221 167 158 152 141 132 135 137 136 134 133 132 131 127 125 123 120 117
143 154 145 148 187 167 196 270 282 218 250 295 305 312 322 326 325 325 324 326 329 331 332 332 328 326 323 322 324 330 34 103 114 118 120 123 127 130 130 130 128 127 126 125 124 123 121 121 119